Showing default

CHINASAT 18, 44493

Orbit data source: Space-Track

CHINASAT 18, 44493 is a payload satellite owned by PLA SSF (CN) in HEO that was launched on Mon, 19 Aug 2019 UTC via a CHANG ZHENG 3B launch vehicle from the Xichang Space Center, China (XSC). Payload-class satellites include a variety of spacecraft equipped with specific instruments for various scientific and technological missions. These include communications satellites like Starlink; space stations such as the ISS; scientific satellites like the Hubble; Earth observation satellites from companies like Planet Labs, Umbra, and HawkEye 360; GPS; miniature CubeSats for education and research; and military/defense satellites.

Loading next visibility...
Identifier
44493, 2019-053A
Orbit
HEO
Country
Flag of CNCN / PRC
Related business
Manufacturer
CAST
Mission
Non-operational Civil Communications
Bus & Motor
DFH-4, DFH-4 LAE
Mass
~5,250 kg wet, ~2,500 kg dry
Launch date (UTC)
2019-08-19 (6 years ago)
Launch vehicle
CHANG ZHENG 3B
Launch site
Xichang Space Center, China (XSC)
Object type
Payload
Rocket body
Debris
Shape & HBR
Box + 2 Pan, 15.0 m
Radar Cross Section
34.063 m², Large (>1 m²)

Expand to show TLE details & history
Last TLE update: 17 hours ago

TLE from 17 hours ago
0 CHINASAT 18
1 44493U 19053A   25310.35867361  .00156366 -12368-6  32773-3 0  9991
2 44493  28.2536 173.0356 6453621  88.9142 338.9631  3.48629232 61623
Epoch: 2025-11-06T08:36Z
TLE epoch observation values (Epoch: 2025-11-06T08:36:29.399Z)
Latitude
-0.00001°
Longitude
-1.83752°
Altitude
4,189.885 km
Speed
7.331 km/s
True Right ascension
11h 32m 24s
True Declination
0° 00' 00"
Sunlit
Object was in daylight at epoch
Visualization orbit readout
Latitude
Unknown
Longitude
Unknown
Altitude
Unknown
Speed
Unknown
Apparent Right ascension
Unknown
Apparent Declination
Unknown
Sunlit
N/A
Visualization observer readout
Local Sidereal Time
21:38:52
Azimuth
Unknown
Elevation
Unknown
Doppler factor
Unknown
Orbital elements
Apogee altitude
23,856.549 km
Perigee altitude
138.584 km
Semi-major axis
18,375.704 km
Eccentricity
0.64536
Inclination
28.2536°
RAAN
173.0356°
Arg. of periapsis
88.9142°
True anomaly
271.19313°
Mean anomaly
338.9631°
Eccentric anomaly
311.09817°
Mean motion
0.87132 °/min
Orbital period
413.17 mins
BSTAR
0.00032773
Loading maneuver chart data...
Computing Atmospheric mass density...
Loading historical data...
Loading historical data...
Loading historical data...
Loading historical data...
Loading historical data...
Loading historical data...
Loading historical data...
Other satellites on launch #53 in the year 2019 (2019-08-19 UTC)

Documentation

Showing up to 5 results
|